Simultaneous Nadir Overpasses (SNOs) Predictions

Prediction of SNOs between NOAA-20 and METOP-B Satellite Orbit:

Table of predicted SNOs for the next 14.0 days since TLE Epoch: 12/8/2022
Index Date (NOAA-20) Time (NOAA-20) Lat,Lon (NOAA-20) SZA (NOAA-20 ) Date (METOP-B) Time (METOP-B) Lat,Lon (METOP-B) SZA (METOP-B ) Distance(km) Time Diff (sec)
1 12/21/2022 14:03:37 73.46, -40.65 97.00 12/21/2022 14:04:43 73.40, -37.88 96.83 88.22 66
2 12/21/2022 14:54:19 -73.35, 126.90 83.12 12/21/2022 14:55:27 -73.29, 129.20 83.27 73.85 68
3 12/21/2022 15:45:01 73.16, -65.36 96.68 12/21/2022 15:46:11 73.07, -63.93 96.53 47.16 70
4 12/21/2022 16:35:43 -73.05, 102.18 83.44 12/21/2022 16:36:54 -73.02, 103.27 83.53 35.60 71
5 12/21/2022 17:26:25 72.86, -90.09 96.36 12/21/2022 17:27:38 72.80, -89.85 96.28 10.22 73
6 12/21/2022 18:17:07 -72.76, 77.44 83.76 12/21/2022 18:18:21 -72.74, 77.36 83.78 3.07 74
7 12/21/2022 19:07:53 72.76,-115.26 96.25 12/21/2022 19:09:00 72.78,-115.23 96.26 2.39 67
8 12/21/2022 19:58:37 -72.76, 52.07 83.76 12/21/2022 19:59:42 -72.77, 52.08 83.75 2.03 65
9 12/21/2022 20:49:23 72.76,-140.64 96.25 12/21/2022 20:50:22 72.76,-140.61 96.24 0.80 59
10 12/21/2022 21:40:07 -72.76, 26.69 83.75 12/21/2022 21:41:04 -72.75, 26.70 83.77 0.74 57
11 12/21/2022 22:30:53 72.76,-166.02 96.26 12/21/2022 22:31:44 72.74,-165.99 96.22 2.84 51
12 12/21/2022 23:21:37 -72.76, 1.31 83.75 12/21/2022 23:22:26 -72.73, 1.32 83.79 3.05 49
13 12/22/2022 00:12:22 72.72, 168.71 96.21 12/22/2022 00:13:06 72.72, 168.62 96.21 2.87 44
14 12/22/2022 01:03:06 -72.71, -23.97 83.80 12/22/2022 01:03:48 -72.71, -24.06 83.80 3.07 42
15 12/22/2022 01:53:52 72.72, 143.33 96.21 12/22/2022 01:54:28 72.70, 143.24 96.19 3.59 36
16 12/22/2022 02:44:36 -72.72, -49.35 83.80 12/22/2022 02:45:09 -72.75, -49.34 83.78 3.29 33



Historial Predications of SNOs between NOAA-20 and METOP-B
